Weather Roundup
Issued by NWS Springfield, MO

Home | Current Version | Previous Version | Text Only | Print | Product List | Glossary On
Versions: 1 2 3 4 5 6 7 8 9 10 11 12 13 14 15 16 17 18 19 20 21 22 23 24 25 26 27 28 29 30 31 32 33 34 35 36 37 38 39 40 41 42 43 44 45 46 47 48 49 50
000
NZUS99 KSGF 161907
HRRSGF

HOURLY WEATHER
NATIONAL WEATHER SERVICE SPRINGFIELD MO
200 PM CDT MON OCT 16 2017

......SGF CWA......

CITY           SKY/WX    TMP DP  RH WIND       PRES   REMARKS
SPRINGFIELD    SUNNY     66  34  30 CALM      30.37F
JOPLIN         SUNNY     64  38  38 CALM      30.38F
WEST PLAINS    SUNNY     66  32  28 E8        30.37F
ROLLA          SUNNY     64  35  34 CALM      30.36F
OSAGE BEACH    SUNNY     64  36  35 CALM      30.37F
BRANSON        SUNNY     64  34  32 NE5       30.39F

......SURROUNDING SGF CWA......

CITY           SKY/WX    TMP DP  RH WIND       PRES   REMARKS
CHANUTE        SUNNY     67  40  37 SW8       30.37F
PARSONS        LGT RAIN  66  36  32 S5        30.39F
COFFEYVILLE    SUNNY     67  39  35 VRB6      30.38F
EMPORIA        SUNNY     69  37  30 S10       30.34F
GROVE OK       SUNNY     66  37  34 CALM      30.40F
ROGERS AR      SUNNY     64  37  36 NE7       30.38F
SILOAM SPRINGS SUNNY     65  37  35 VRB6      30.38F
HARRISON AR    SUNNY     65  35  33 NE9       30.38F
NEAR YELLVILLE SUNNY     67  36  31 E8        30.37F

......KANSAS AND MISSOURI......

CITY           SKY/WX    TMP DP  RH WIND       PRES   REMARKS
KANSAS CTY INT SUNNY     67  40  37 SW13      30.32F
DOWNTOWN KC    SUNNY     68  40  35 S6        30.32F
COLUMBIA       SUNNY     66  37  34 W8        30.35F
SEDALIA        SUNNY     67  41  38 W8        30.35F
ST JOSEPH      SUNNY     71  38  29 SW9       30.30F
ST LOUIS       SUNNY     65  37  35 VRB3      30.35F
SPIRIT OF STL  SUNNY     65  38  36 SW7       30.34F
KIRKSVILLE     SUNNY     65  39  38 SW8       30.33F
WICHITA        MOSUNNY   68  43  40 S15       30.34F
TOPEKA         SUNNY     71  40  32 SW9       30.31F
OLATHE         SUNNY     65  39  38 SW7       30.34F

......TENNESSEE......

CITY           SKY/WX    TMP DP  RH WIND       PRES   REMARKS
MEMPHIS        SUNNY     66  40  38 N10       30.31F
NASHVILLE      MOSUNNY   66  41  40 N13       30.29F

......ARKANSAS.......

CITY           SKY/WX    TMP DP  RH WIND       PRES   REMARKS
FAYETTEVILLE   SUNNY     65  38  36 E6        30.37F
FT SMITH       SUNNY     67  39  35 E3        30.36F
LITTLE ROCK    SUNNY     66  42  41 NE9       30.35F

......OKLAHOMA.......

CITY           SKY/WX    TMP DP  RH WIND       PRES   REMARKS
TULSA          SUNNY     67  34  29 SE3       30.38F
PONCA CITY     SUNNY     68  39  34 S9        30.37F
MCALESTER      SUNNY     68  41  37 VRB3      30.37F
OKLAHOMA CITY  SUNNY     66  36  32 VRB6      30.38F

......IOWA............

CITY           SKY/WX    TMP DP  RH WIND       PRES   REMARKS
DES MOINES     SUNNY     67  34  29 SW8       30.25F
QUAD CITIES    SUNNY     64  37  36 NW12      30.28F

......ILLINOIS........

CITY           SKY/WX    TMP DP  RH WIND       PRES   REMARKS
QUINCY         SUNNY     65  35  33 W12       30.32F
CHICAGO        MOSUNNY   61  40  45 SW9       30.26F




USA.gov is the U.S. government's official web portal to all federal, state and local government web resources and services.